| time (UTC) | temp F | wind direction | speed knots | gust knots | rain 1hr in | rain 24hr in | rain mn in | humidity % | barometer mb |
| 20260906183003 | 62 | 222 | 5.2 | 8.7 | 0.00 | 0.03 | 0.03 | 75 | 1014.4 |
| 20260906181546 | 59 | 249 | 5.2 | 11.3 | 0.00 | 0.03 | 0.03 | 81 | 1014.5 |
| 20260906180046 | 60 | 278 | 7.0 | 10.4 | 0.00 | 0.03 | 0.03 | 76 | 1014.7 |
| 20260906174534 | 61 | 330 | 0.9 | 3.5 | 0.00 | 0.03 | 0.03 | 71 | 1014.3 |
| 20260906173025 | 60 | 3 | 0.9 | 4.3 | 0.00 | 0.03 | 0.03 | 75 | 1014.2 |
| 20260906171505 | 59 | 349 | 1.7 | 3.5 | 0.00 | 0.03 | 0.03 | 79 | 1014.3 |
| 20260906170004 | 59 | 3 | 0.0 | 0.9 | 0.01 | 0.03 | 0.03 | 82 | 1014.6 |
| 20260906164554 | 58 | 359 | 1.7 | 1.7 | 0.02 | 0.03 | 0.03 | 81 | 1014.6 |
| 20260906163051 | 58 | 335 | 3.5 | 9.6 | 0.03 | 0.03 | 0.03 | 79 | 1014.7 |
| 20260906161529 | 57 | 318 | 7.0 | 11.3 | 0.03 | 0.03 | 0.03 | 78 | 1015.0 |
| 20260906160043 | 56 | 298 | 9.6 | 13.0 | 0.02 | 0.02 | 0.02 | 79 | 1015.1 |
| 20260906154526 | 55 | 296 | 7.8 | 14.8 | 0.01 | 0.01 | 0.01 | 80 | 1015.4 |
| 20260906153021 | 58 | 279 | 6.1 | 8.7 | 0.00 | 0.00 | 0.00 | 72 | 1015.1 |
| 20260906151519 | 59 | 335 | 0.0 | 5.2 | 0.00 | 0.00 | 0.00 | 64 | 1014.7 |
| 20260906150038 | 58 | 269 | 4.3 | 8.7 | 0.00 | 0.00 | 0.00 | 68 | 1014.7 |
| 20260906144512 | 60 | 273 | 2.6 | 5.2 | 0.00 | 0.00 | 0.00 | 62 | 1014.7 |
| 20260906143020 | 62 | 354 | 0.9 | 6.1 | 0.00 | 0.00 | 0.00 | 53 | 1014.5 |
| 20260906141604 | 62 | 345 | 3.5 | 7.0 | 0.00 | 0.00 | 0.00 | 53 | 1014.3 |
| 20260906140057 | 62 | 1 | 1.7 | 5.2 | 0.00 | 0.00 | 0.00 | 53 | 1014.2 |
| 20260906134549 | 62 | 37 | 2.6 | 5.2 | 0.00 | 0.00 | 0.00 | 53 | 1013.9 |
| 20260906133049 | 62 | 49 | 2.6 | 7.8 | 0.00 | 0.00 | 0.00 | 53 | 1013.8 |
| 20260906131546 | 61 | 5 | 2.6 | 5.2 | 0.00 | 0.00 | 0.00 | 56 | 1013.9 |
| 20260906130146 | 57 | 53 | 0.9 | 5.2 | 0.00 | 0.00 | 0.00 | 67 | 1014.0 |
| 20260906124545 | 56 | 273 | 2.6 | 8.7 | 0.00 | 0.00 | 0.00 | 73 | 1014.2 |
| 20260906123042 | 56 | 269 | 3.5 | 5.2 | 0.00 | 0.00 | 0.00 | 72 | 1014.3 |
| 20260906121518 | 56 | 284 | 1.7 | 6.1 | 0.00 | 0.00 | 0.00 | 72 | 1014.5 |
| 20260906120016 | 56 | 278 | 2.6 | 6.1 | 0.00 | 0.00 | 0.00 | 71 | 1014.5 |
| 20260906114559 | 59 | 281 | 6.1 | 8.7 | 0.00 | 0.00 | 0.00 | 65 | 1014.5 |
| 20260906113104 | 62 | 73 | 4.3 | 7.0 | 0.00 | 0.00 | 0.00 | 53 | 1014.2 |
| 20260906111546 | 63 | 11 | 4.3 | 12.2 | 0.00 | 0.00 | 0.00 | 52 | 1014.3 |
| 20260906110043 | 63 | 360 | 7.8 | 13.9 | 0.00 | 0.00 | 0.00 | 53 | 1014.2 |
| 20260906104523 | 62 | 23 | 6.1 | 10.4 | 0.00 | 0.00 | 0.00 | 55 | 1014.3 |
| 20260906103019 | 59 | 51 | 3.5 | 5.2 | 0.00 | 0.00 | 0.00 | 62 | 1014.3 |
| 20260906101557 | 59 | 79 | 5.2 | 7.0 | 0.00 | 0.00 | 0.00 | 61 | 1014.3 |
| 20260906100054 | 60 | 52 | 5.2 | 7.8 | 0.00 | 0.00 | 0.00 | 59 | 1014.4 |
| 20260906094602 | 60 | 12 | 9.6 | 13.9 | 0.00 | 0.00 | 0.00 | 58 | 1014.4 |
| 20260906093039 | 61 | 18 | 10.4 | 14.8 | 0.00 | 0.00 | 0.00 | 59 | 1014.5 |
| 20260906091518 | 61 | 13 | 11.3 | 14.8 | 0.00 | 0.00 | 0.00 | 59 | 1014.6 |
| 20260906090018 | 61 | 359 | 8.7 | 12.2 | 0.00 | 0.00 | 0.00 | 60 | 1014.6 |
| 20260906084600 | 60 | 343 | 9.6 | 11.3 | 0.00 | 0.00 | 0.00 | 62 | 1014.8 |
| 20260906083100 | 60 | 3 | 7.8 | 11.3 | 0.00 | 0.00 | 0.00 | 63 | 1014.9 |
| 20260906081551 | 60 | 357 | 12.2 | 14.8 | 0.00 | 0.00 | 0.00 | 64 | 1014.9 |
| 20260906080049 | 60 | 16 | 8.7 | 13.0 | 0.00 | 0.00 | 0.00 | 65 | 1015.1 |
| 20260906074522 | 60 | 34 | 9.6 | 13.0 | 0.00 | 0.00 | 0.00 | 63 | 1015.1 |
| 20260906073022 | 61 | 337 | 7.8 | 10.4 | 0.00 | 0.00 | 0.00 | 59 | 1015.3 |
| 20260906071504 | 61 | 18 | 8.7 | 14.8 | 0.00 | 0.00 | 0.00 | 61 | 1015.3 |
| 20260906070003 | 60 | 357 | 9.6 | 13.0 | 0.00 | 0.00 | 0.00 | 62 | 1015.0 |
| 20260906064545 | 60 | 1 | 10.4 | 13.9 | 0.00 | 0.00 | 0.00 | 64 | 1015.2 |
| 20260906063045 | 60 | 36 | 7.0 | 12.2 | 0.00 | 0.00 | 0.00 | 61 | 1015.1 |
| 20260906061535 | 63 | 22 | 6.1 | 8.7 | 0.00 | 0.00 | 0.00 | 54 | 1014.9 |
| 20260906060028 | 65 | 16 | 6.1 | 9.6 | 0.00 | 0.00 | 0.00 | 53 | 1014.9 |
| 20260906054509 | 65 | 8 | 6.1 | 10.4 | 0.00 | 0.00 | 0.00 | 52 | 1014.8 |
| 20260906053011 | 65 | 356 | 7.0 | 9.6 | 0.00 | 0.00 | 0.00 | 53 | 1014.9 |
| 20260906051549 | 64 | 318 | 0.9 | 5.2 | 0.00 | 0.00 | 0.00 | 56 | 1015.2 |
| 20260906050100 | 63 | 304 | 1.7 | 3.5 | 0.00 | 0.00 | 0.00 | 57 | 1015.4 |
| 20260906044534 | 63 | 293 | 1.7 | 3.5 | 0.00 | 0.00 | 0.00 | 55 | 1015.3 |
| 20260906043030 | 64 | 331 | 0.0 | 2.6 | 0.00 | 0.00 | 0.00 | 55 | 1015.3 |
| 20260906041514 | 64 | 260 | 0.0 | 2.6 | 0.00 | 0.00 | 0.00 | 55 | 1015.2 |
| 20260906040012 | 65 | 340 | 5.2 | 8.7 | 0.00 | 0.00 | 0.00 | 51 | 1014.9 |
| 20260906034603 | 65 | 330 | 5.2 | 7.8 | 0.00 | 0.00 | 0.00 | 51 | 1014.9 |
| 20260906033057 | 65 | 316 | 3.5 | 5.2 | 0.00 | 0.00 | 0.00 | 51 | 1014.8 |
| 20260906031547 | 66 | 333 | 0.9 | 4.3 | 0.00 | 0.00 | 0.00 | 52 | 1014.6 |
| 20260906030037 | 67 | 316 | 6.1 | 7.8 | 0.00 | 0.00 | 0.00 | 52 | 1014.4 |
| 20260906024521 | 68 | 320 | 7.8 | 11.3 | 0.00 | 0.00 | 0.00 | 52 | 1014.4 |
| 20260906023020 | 69 | 313 | 7.0 | 8.7 | 0.00 | 0.00 | 0.00 | 51 | 1014.4 |
| 20260906021502 | 69 | 264 | 4.3 | 4.3 | 0.00 | 0.00 | 0.00 | 51 | 1014.5 |
| 20260906020106 | 70 | 259 | 3.5 | 5.2 | 0.00 | 0.00 | 0.00 | 47 | 1014.5 |
| 20260906020002 | 70 | 257 | 3.5 | 5.2 | 0.00 | 0.00 | 0.00 | 47 | 1014.4 |
| 20260906014552 | 72 | 260 | 5.2 | 8.7 | 0.00 | 0.00 | 0.00 | 45 | 1014.4 |
| 20260906013042 | 73 | 256 | 7.8 | 9.6 | 0.00 | 0.00 | 0.00 | 44 | 1014.4 |
| 20260906011524 | 73 | 218 | 8.7 | 10.4 | 0.00 | 0.00 | 0.00 | 44 | 1014.4 |
| 20260906010024 | 73 | 221 | 8.7 | 10.4 | 0.00 | 0.00 | 0.00 | 45 | 1014.4 |
| 20260906004505 | 74 | 235 | 8.7 | 12.2 | 0.00 | 0.00 | 0.00 | 45 | 1014.3 |
| 20260906003003 | 74 | 203 | 8.7 | 12.2 | 0.00 | 0.00 | 0.00 | 44 | 1014.4 |
| 20260906001544 | 74 | 267 | 7.8 | 13.0 | 0.00 | 0.00 | 0.00 | 43 | 1014.5 |
| 20260906000044 | 73 | 239 | 9.6 | 14.8 | 0.00 | 0.00 | 0.00 | 46 | 1014.5 |
| 20260905234525 | 73 | 259 | 11.3 | 16.5 | 0.00 | 0.00 | 0.00 | 47 | 1014.5 |
| 20260905233031 | 73 | 260 | 12.2 | 16.5 | 0.00 | 0.00 | 0.00 | 45 | 1014.6 |
| 20260905231507 | 73 | 244 | 13.0 | 15.6 | 0.00 | 0.00 | 0.00 | 46 | 1014.6 |
| 20260905230006 | 72 | 215 | 11.3 | 15.6 | 0.00 | 0.00 | 0.00 | 47 | 1014.6 |
| 20260905224610 | 71 | 207 | 7.8 | 12.2 | 0.00 | 0.00 | 0.00 | 51 | 1014.6 |
| 20260905223051 | 72 | 260 | 11.3 | 14.8 | 0.00 | 0.00 | 0.00 | 49 | 1014.8 |
| 20260905221550 | 75 | 222 | 7.0 | 10.4 | 0.00 | 0.00 | 0.00 | 38 | 1015.1 |
| 20260905220046 | 74 | 205 | 2.6 | 7.8 | 0.00 | 0.00 | 0.00 | 39 | 1015.1 |
| 20260905214544 | 73 | 146 | 3.5 | 6.1 | 0.00 | 0.00 | 0.00 | 40 | 1015.4 |
| 20260905213041 | 73 | 156 | 4.3 | 8.7 | 0.00 | 0.00 | 0.00 | 40 | 1015.5 |
| 20260905211545 | 72 | 128 | 0.0 | 4.3 | 0.00 | 0.00 | 0.00 | 41 | 1015.6 |
| 20260905210050 | 71 | 11 | 3.5 | 6.1 | 0.00 | 0.00 | 0.00 | 43 | 1015.7 |
| 20260905204534 | 71 | 336 | 0.0 | 5.2 | 0.00 | 0.00 | 0.00 | 45 | 1015.8 |
| 20260905203015 | 70 | 72 | 7.0 | 9.6 | 0.00 | 0.00 | 0.00 | 46 | 1016.0 |
| 20260905201514 | 70 | 345 | 6.1 | 9.6 | 0.00 | 0.00 | 0.00 | 46 | 1016.1 |
| 20260905200120 | 70 | 1 | 7.8 | 10.4 | 0.00 | 0.00 | 0.00 | 47 | 1016.1 |
| 20260905194552 | 69 | 9 | 5.2 | 10.4 | 0.00 | 0.00 | 0.00 | 48 | 1016.2 |
| 20260905193033 | 69 | 20 | 6.1 | 8.7 | 0.00 | 0.00 | 0.00 | 48 | 1016.2 |
| 20260905191539 | 68 | 3 | 7.8 | 11.3 | 0.00 | 0.00 | 0.00 | 49 | 1016.3 |
| 20260905190014 | 68 | 338 | 4.3 | 10.4 | 0.00 | 0.00 | 0.00 | 49 | 1016.4 |
| 20260905184512 | 68 | 5 | 4.3 | 10.4 | 0.00 | 0.00 | 0.00 | 49 | 1016.6 |